Regional Weather Roundup
Issued by NWS Memphis, TN

Home | Current Version | Previous Version | Text Only | Print | Product List | Glossary On
Versions: 1 2 3 4 5 6 7 8 9 10 11 12 13 14 15 16 17 18 19 20 21 22 23 24 25 26 27 28 29 30 31 32 33 34 35 36 37 38 39 40 41 42 43 44 45 46 47 48 49 50
000
ASUS44 KMEG 292000
RWRMEG
MEMPHIS CWA HOURLY WEATHER ROUNDUP
NATIONAL WEATHER SERVICE MEMPHIS TN
300 PM CDT MON MAY 29 2017

...WEST TENNESSEE...

CITY           SKY/WX    TMP DP  RH WIND       PRES   REMARKS
MEMPHIS INTL   CLOUDY    84  60  44 CALM      29.99F
NWS MEMPHIS      N/A     84 N/A N/A MISG        N/A
JACKSON        CLOUDY    84  56  38 VRB3      29.98F
DYERSBURG        N/A    N/A N/A N/A MISG        N/A


...EASTERN ARKANSAS...

CITY           SKY/WX    TMP DP  RH WIND       PRES   REMARKS
JONESBORO      CLOUDY    86  52  30 VRB3      29.98F
WEST MEMPHIS   CLOUDY    83  60  45 NW5       29.98S
BATESVILLE     MOSUNNY   84  54  34 W8        30.00F
NEWPORT        CLOUDY    84  54  35 W5        30.00F
WALNUT RIDGE   CLOUDY    84  57  39 W8        29.98F
BLYTHEVILLE    SUNNY     84  58  40 NW9       29.98F
SEARCY         CLOUDY    85  60  42 SW6       30.02F HAZE
STUTTGART      CLOUDY    82  54  36 SW3       30.02F
PINE BLUFF     LGT RAIN  82  57  42 NE3       30.01F
MONTICELLO     CLOUDY    78  67  68 W5        30.01F


...NORTH MISSISSIPPI...

CITY           SKY/WX    TMP DP  RH WIND       PRES   REMARKS
TUPELO         PTSUNNY   82  64  54 SW6       29.99F
OLIVE BRANCH   PTSUNNY  N/A N/A N/A VRB5      29.99F
TUNICA         MOSUNNY   81  64  57 CALM      30.00F
CLARKSDALE       N/A     79  75  89 MISG      30.01S
GREENWOOD      CLOUDY    80  67  64 VRB7      30.00F
COLUMBUS       CLOUDY    80  69  67 W10       29.99F
STARKVILLE     PTSUNNY   79  64  61 W3        30.02F


...SOUTHEAST MISSOURI...

CITY           SKY/WX    TMP DP  RH WIND       PRES   REMARKS
KENNETT        SUNNY     86  52  30 W7        29.96F
MALDEN         MOSUNNY   86  50  28 W9        29.98F
WEST PLAINS    MOSUNNY   81  56  42 W9        30.02F
POPLAR BLUFF   CLOUDY    83  62  49 SW12      29.96F
CAPE GIRARDEAU SUNNY     85  55  35 W14G22    29.94F


...NORTHWEST ALABAMA...

CITY           SKY/WX    TMP DP  RH WIND       PRES   REMARKS
MUSCLE SHOALS  PTSUNNY   81  67  62 SW5       30.00F


...MIDDLE TENNESSEE...

CITY           SKY/WX    TMP DP  RH WIND       PRES   REMARKS
NASHVILLE      PTSUNNY   81  58  45 W5        30.00F
CLARKSVILLE    SUNNY     82  52  35 W9        29.97F


...WESTERN KENTUCKY...

CITY           SKY/WX    TMP DP  RH WIND       PRES   REMARKS
PADUCAH        SUNNY     84  55  36 SW15      29.95F


...CENTRAL ARKANSAS...

CITY           SKY/WX    TMP DP  RH WIND       PRES   REMARKS
LITTLE ROCK    PTSUNNY   83  55  38 S6        30.01F


SKY/WX REPORTED AS FAIR MEANS FEW OR NO CLOUDS BELOW
12 THOUSAND FEET.




USA.gov is the U.S. government's official web portal to all federal, state and local government web resources and services.